Weather History for Davenport, IA

Change the Weather History Date:

Sunday, June 30, 2013

  Actual Average Record
Temperature  
Mean Temperature 69 °F 73 °F  
Max Temperature 79 °F 84 °F 95 °F (1963)
Min Temperature 58 °F 63 °F 53 °F (2007)
Degree Days  
Heating Degree Days 0 0  
Month to date heating degree days 24 22  
Since 1 June heating degree days 24 24  
Since 1 July heating degree days 6567 6511  
Cooling Degree Days 4 8  
Month to date cooling degree days 196 182  
Year to date cooling degree days 291 243  
Since 1 June cooling degree days 196 182  
Growing Degree Days 20 (Base 50)    
Moisture  
Dew Point 58 °F    
Average Humidity 69    
Maximum Humidity 90    
Minimum Humidity 48    
Precipitation  
Precipitation 0.00 in 0.12 in 4.50 in (1983)
Month to date precipitation 4.43 4.19  
Year to date precipitation 25.40 17.00  
Snow  
Snow 0.00 in - - ()
Month to date snowfall 0.0  
Since 1 June snowfall 0.0  
Since 1 July snowfall 27.1  
Snow Depth 0.00 in    
Sea Level Pressure  
Sea Level Pressure 29.93 in    
Wind  
Wind Speed 11 mph (NNE)    
Max Wind Speed 18 mph    
Max Gust Speed 24 mph    
Visibility 10 miles    
Events      
T = Trace of Precipitation, MM = Missing Value Source: NWS Daily Summary

Daily Weather History Graph

Daily Weather History Graph

Search for Another Location

Airport:

Trip Planner

Search our weather history database for the weather conditions in past years. The results will help you decide how hot, cold, wet, or windy it might be!

Date:

Astronomy

Jun. 30, 2013 Rise Set
Actual Time 5:31 AM CDT 8:40 PM CDT
Civil Twilight 4:57 AM CDT 9:14 PM CDT
Nautical Twilight 4:13 AM CDT 9:57 PM CDT
Astronomical Twilight 3:21 AM CDT 10:49 PM CDT
Moon 12:34 AM CDT (6/30) 1:52 PM CDT (6/30)
Length of Visible Light 16h 16m
Length of Day
15h 08m
Last Quarter, 45% of the Moon is Illuminated
Jun 30
Last Quarter
Jul 8
New
Jul 15
First Quarter
Jul 22
Full
Jul 29
Last Quarter

Hourly Weather History & Observations

Time (CDT) Temp. Dew Point Humidity Pressure Visibility Wind Dir Wind Speed Gust Speed Precip Events Conditions
12:52 AM 64.0 °F 59.0 °F 84% 29.83 in 10.0 mi North 8.1 mph - N/A   Scattered Clouds
1:52 AM 64.9 °F 57.9 °F 78% 29.84 in 10.0 mi North 10.4 mph - N/A   Overcast
2:52 AM 64.0 °F 57.9 °F 80% 29.84 in 10.0 mi North 8.1 mph - N/A   Overcast
3:52 AM 63.0 °F 57.9 °F 84% 29.85 in 10.0 mi North 9.2 mph - N/A   Overcast
4:52 AM 62.1 °F 57.9 °F 86% 29.87 in 10.0 mi North 6.9 mph - N/A   Mostly Cloudy
5:52 AM 63.0 °F 57.9 °F 84% 29.89 in 10.0 mi North 9.2 mph - N/A   Overcast
6:52 AM 63.0 °F 59.0 °F 87% 29.91 in 10.0 mi North 11.5 mph - N/A   Overcast
7:52 AM 66.0 °F 57.9 °F 75% 29.92 in 10.0 mi NNE 15.0 mph - N/A   Partly Cloudy
8:52 AM 68.0 °F 57.0 °F 68% 29.94 in 9.0 mi NNE 13.8 mph 19.6 mph N/A   Scattered Clouds
9:52 AM 69.1 °F 57.0 °F 65% 29.94 in 9.0 mi NNE 12.7 mph - N/A   Overcast
10:52 AM 72.0 °F 59.0 °F 64% 29.94 in 9.0 mi North 12.7 mph - N/A   Partly Cloudy
11:52 AM 73.9 °F 61.0 °F 64% 29.95 in 10.0 mi North 11.5 mph - N/A   Clear
12:52 PM 75.9 °F 62.1 °F 62% 29.95 in 10.0 mi NE 11.5 mph - N/A   Clear
1:52 PM 77.0 °F 61.0 °F 58% 29.94 in 10.0 mi NNE 13.8 mph 20.7 mph N/A   Clear
2:52 PM 77.0 °F 59.0 °F 54% 29.95 in 10.0 mi NNE 12.7 mph - N/A   Clear
3:52 PM 77.0 °F 60.1 °F 56% 29.95 in 10.0 mi NNE 12.7 mph - N/A   Scattered Clouds
4:52 PM 78.1 °F 57.9 °F 50% 29.94 in 10.0 mi NE 10.4 mph - N/A   Partly Cloudy
5:52 PM 78.1 °F 57.9 °F 50% 29.95 in 9.0 mi NNE 15.0 mph - N/A   Clear
6:52 PM 75.9 °F 55.0 °F 48% 29.96 in 10.0 mi NNE 15.0 mph 21.9 mph N/A   Clear
7:52 PM 73.9 °F 55.9 °F 53% 29.98 in 10.0 mi NNE 12.7 mph - N/A   Partly Cloudy
8:52 PM 69.1 °F 55.9 °F 63% 29.99 in 9.0 mi NNE 8.1 mph - N/A   Clear
9:52 PM 66.9 °F 55.0 °F 66% 30.01 in 10.0 mi NE 9.2 mph - N/A   Scattered Clouds
10:52 PM 62.1 °F 55.9 °F 80% 30.03 in 10.0 mi NNE 6.9 mph - N/A   Clear
11:52 PM 60.1 °F 55.0 °F 83% 30.04 in 10.0 mi NNE 5.8 mph - N/A   Clear